#timestamp,LO_Frequency,Hit,StdDev 
1640116815.0,286047000.7,N
1640116815.9,286047000.7,N
1640116835.8,286046998.3,N
1640116855.6,286047001.2,N
1640116875.4,286046998.1,N
1640116895.3,286047001.1,N
1640116915.1,286046998.4,N
1640116935.9,286046998.1,N
1640116955.7,286046998.9,N
1640116975.5,286046996.5,Y
1640116995.4,286046998.0,P
1640117015.2,286046995.8,P
1640117035.0,286046996.7,N
1640117035.9,286046996.7,N
1640117055.8,286046996.9,N
1640117075.6,286046996.6,N
1640117095.5,286046999.1,N
1640117115.3,286046997.0,N
1640117135.1,286046996.8,N
1640117155.9,286046997.4,N
1640117175.7,286046997.2,N
1640117195.6,286046995.4,Y
1640117215.4,286046998.5,P
1640117235.2,286046999.1,N
1640117255.1,286046998.3,N
1640117256.0,286046998.3,N
1640117275.8,286046998.8,N
1640117295.6,286046999.6,N
1640117315.5,286046997.4,Y
1640117335.3,286046999.6,P
1640117355.2,286046998.8,N
1640117375.9,286046998.5,P
1640117395.7,286047000.6,N
1640117415.6,286047001.2,N
1640117435.4,286046999.4,N
1640117455.2,286046998.9,N
1640117475.1,286046999.2,N
1640117476.0,286046999.2,N
1640117495.8,286047000.9,N
1640117515.7,286046998.7,N
1640117535.5,286046998.1,N
1640117555.3,286047001.0,N
1640117575.2,286046999.6,N
1640117595.0,286046996.9,Y
1640117595.9,286046996.9,P
1640117615.8,286046996.8,N
1640117635.6,286046996.8,N
1640117655.4,286046996.7,N
1640117675.3,286046997.2,N
1640117695.1,286046997.5,N
1640117715.9,286046995.4,Y
1640117735.7,286046999.2,P
1640117755.5,286046998.7,N
1640117775.4,286046999.6,N
1640117795.2,286046999.1,N
1640117815.1,286046998.4,N
1640117816.0,286046998.4,N
1640117835.8,286046998.9,N
1640117855.7,286046998.9,N
1640117875.5,286046998.8,N
1640117895.3,286046999.1,N
1640117915.2,286046998.5,N
1640117935.0,286047000.7,N
1640117935.9,286047000.7,N
1640117955.8,286047000.7,N
1640117975.6,286047000.2,N
1640117995.4,286046998.2,N
1640118015.3,286046998.5,N
1640118035.1,286047000.9,N
1640118055.8,286047000.2,N
1640118075.7,286047001.2,N
1640118095.5,286047000.0,N
1640118115.4,286046999.7,N
1640118135.2,286047000.6,N
1640118155.0,286047002.8,N
1640118155.9,286047002.8,N
1640118205.8,286047000.2,E
1640118215.7,286047000.8,N
1640118235.6,286047000.7,P
1640118255.4,286046998.6,P
1640118275.2,286047000.4,N
1640118295.1,286047000.2,N
1640118296.0,286047000.2,N
1640118315.8,286047000.1,N
1640118335.6,286047000.0,N
1640118355.5,286047000.0,N
1640118375.3,286047002.3,Y
1640118395.2,286047002.4,P
1640118415.9,286047000.9,N
1640118435.7,286047000.4,N
1640118455.6,286047001.2,N
1640118475.4,286046998.9,N
1640118495.3,286047000.8,N
1640118515.1,286046998.6,N
1640118516.0,286046998.6,N
1640118535.8,286046998.6,N
1640118555.7,286046999.4,N
1640118575.5,286046999.0,N
1640118595.3,286046998.4,N
1640118615.2,286046998.3,N
1640118635.0,286046998.7,N
1640118635.9,286046998.7,N
1640118655.8,286046998.7,N
1640118675.6,286047000.9,N
1640118695.5,286047000.2,N
1640118715.3,286047000.1,N
1640118735.2,286046998.1,N
1640118755.9,286046998.6,N
1640118775.7,286046998.4,N
1640118795.6,286047001.2,N
1640118815.4,286047000.8,N
1640118835.3,286046998.1,N
1640118855.1,286046998.4,N
1640118856.0,286046998.4,N
1640118875.8,286046999.0,N
1640118895.7,286046999.6,N
1640118915.5,286046999.3,N
1640118935.3,286046996.5,Y
1640118955.2,286046997.1,P
1640118975.0,286046997.0,N
1640118975.9,286046997.0,N
1640118995.8,286046997.5,N
1640119015.6,286046996.8,Y
1640119035.4,286046999.9,P
1640119055.3,286047000.8,N
1640119075.1,286047001.1,N
1640119095.8,286047000.0,N
1640119115.7,286046999.8,N
1640119135.5,286047001.0,N
1640119155.4,286047001.2,N
1640119175.2,286047000.8,N
1640119195.0,286046998.4,N
1640119195.9,286046998.4,N
1640119215.8,286047001.2,N
1640119235.6,286046998.4,N
1640119255.5,286046999.4,N
1640119275.3,286046999.4,N
1640119295.1,286046998.3,N
1640119315.9,286046999.2,N
1640119335.7,286046998.9,N
1640119355.5,286047000.6,N
1640119375.4,286046999.9,N
1640119395.2,286047000.6,N
1640119415.1,286046999.3,N
1640119416.0,286046999.3,N
1640119435.8,286046999.1,N
1640119455.6,286046996.7,Y
1640119475.5,286046999.2,P
1640119495.3,286046996.9,P
1640119515.1,286046998.8,N
1640119535.9,286046999.3,N
1640119555.7,286046997.3,N
1640119575.6,286046997.2,N
1640119595.4,286046997.2,N
1640119615.2,286046996.8,N
1640119635.1,286046996.5,Y
1640119636.0,286046996.5,P
1640119655.8,286046999.9,N
1640119675.7,286047000.5,N
1640119695.5,286047000.5,N
1640119715.3,286047000.9,N
1640119735.2,286047000.7,N
1640119755.9,286046999.9,N
1640119775.7,286046998.5,N
1640119795.6,286047000.9,N
1640119815.4,286047002.8,N
1640119835.3,286047000.2,N
1640119855.1,286047000.9,N
1640119856.0,286047000.9,N
1640119875.8,286047002.8,N
1640119895.7,286047000.2,N
1640119915.5,286047002.8,N
1640119935.3,286047002.7,N
1640119955.2,286047002.2,N
1640119975.0,286046999.9,N
1640119975.9,286046999.9,N
1640119995.8,286047000.5,N
1640120015.6,286047001.5,N
1640120035.4,286047002.8,N
1640120055.3,286046999.8,N
1640120075.1,286047000.4,N
1640120095.8,286047000.6,N
1640120115.7,286047001.0,N
1640120135.5,286047000.0,N
1640120155.4,286046999.8,N
1640120175.2,286047000.5,N
1640120195.0,286047002.3,N
1640120195.9,286047002.3,N
1640120215.8,286047001.8,N
1640120235.6,286047001.4,N
1640120255.4,286047001.3,N
1640120275.3,286047004.3,Y
1640120295.1,286047002.0,P
1640120315.9,286047001.7,P
1640120335.7,286047001.4,P
1640120355.5,286047002.2,Y
1640120375.4,286047000.4,P
1640120395.2,286047002.6,P
